Time,TemperatureF,DewpointF,PressureIn,WindDirection,WindDirectionDegrees,WindSpeedMPH,WindSpeedGustMPH,Humidity,HourlyPrecipIn,Conditions,Clouds,dailyrainin,SoftwareType,DateUTC
2013-07-01 00:00:00,67.0,64.0,29.84,North,355,0.0,0.0,90,0.00,,,0.01,Wunderground v.1.13,2013-07-01 04:00:00,
2013-07-01 00:05:00,66.9,63.9,29.84,NE,52,0.0,2.0,90,0.00,,,0.00,Wunderground v.1.13,2013-07-01 04:05:00,
2013-07-01 00:15:00,66.7,63.7,29.83,North,9,0.0,0.0,90,0.00,,,0.00,Wunderground v.1.13,2013-07-01 04:15:00,
2013-07-01 00:20:00,66.6,63.6,29.83,NNE,20,0.0,0.0,90,0.00,,,0.00,Wunderground v.1.13,2013-07-01 04:20:00,
2013-07-01 00:30:00,66.4,63.7,29.84,NNE,28,1.0,1.0,91,0.00,,,0.00,Wunderground v.1.13,2013-07-01 04:30:00,
2013-07-01 00:35:00,66.4,63.7,29.84,NNE,16,1.0,1.0,91,0.00,,,0.00,Wunderground v.1.13,2013-07-01 04:35:00,
2013-07-01 00:40:00,66.3,63.6,29.83,North,360,0.0,0.0,91,0.00,,,0.00,Wunderground v.1.13,2013-07-01 04:40:00,
2013-07-01 00:45:00,66.2,63.5,29.83,North,360,0.0,0.0,91,0.00,,,0.00,Wunderground v.1.13,2013-07-01 04:45:00,
2013-07-01 00:55:00,66.1,63.4,29.83,North,360,0.0,1.0,91,0.00,,,0.00,Wunderground v.1.13,2013-07-01 04:55:00,
2013-07-01 01:05:00,66.0,63.3,29.83,NNW,338,0.0,0.0,91,0.00,,,0.00,Wunderground v.1.13,2013-07-01 05:05:00,
2013-07-01 01:15:00,66.0,63.3,29.83,NNW,338,0.0,0.0,91,0.00,,,0.00,Wunderground v.1.13,2013-07-01 05:15:00,
2013-07-01 01:25:00,66.0,63.3,29.83,NNW,339,0.0,0.0,91,0.00,,,0.00,Wunderground v.1.13,2013-07-01 05:25:00,
2013-07-01 01:30:00,65.9,63.2,29.83,NNW,340,0.0,0.0,91,0.00,,,0.00,Wunderground v.1.13,2013-07-01 05:30:00,
2013-07-01 01:40:00,65.9,63.2,29.83,NNE,15,0.0,0.0,91,0.00,,,0.00,Wunderground v.1.13,2013-07-01 05:40:00,
2013-07-01 01:50:00,65.8,63.1,29.83,North,5,1.0,1.0,91,0.00,,,0.00,Wunderground v.1.13,2013-07-01 05:50:00,
2013-07-01 02:00:00,65.8,63.1,29.83,North,5,0.0,0.0,91,0.00,,,0.00,Wunderground v.1.13,2013-07-01 06:00:00,
2013-07-01 02:10:00,65.8,63.1,29.83,North,5,0.0,0.0,91,0.00,,,0.00,Wunderground v.1.13,2013-07-01 06:10:00,
2013-07-01 02:20:00,65.8,63.1,29.83,North,351,0.0,0.0,91,0.00,,,0.00,Wunderground v.1.13,2013-07-01 06:20:00,
2013-07-01 02:30:00,65.8,63.1,29.83,NE,44,0.0,4.0,91,0.00,,,0.00,Wunderground v.1.13,2013-07-01 06:30:00,
2013-07-01 02:40:00,65.7,63.0,29.83,NNE,18,1.0,1.0,91,0.00,,,0.00,Wunderground v.1.13,2013-07-01 06:40:00,
2013-07-01 02:45:00,65.7,63.0,29.83,WNW,293,0.0,0.0,91,0.00,,,0.00,Wunderground v.1.13,2013-07-01 06:45:00,
2013-07-01 02:55:00,65.6,62.9,29.83,NNW,344,0.0,0.0,91,0.00,,,0.00,Wunderground v.1.13,2013-07-01 06:55:00,
2013-07-01 03:00:00,65.6,62.9,29.82,NNE,24,0.0,0.0,91,0.00,,,0.00,Wunderground v.1.13,2013-07-01 07:00:00,
2013-07-01 03:10:00,65.6,62.9,29.83,NNE,15,0.0,0.0,91,0.00,,,0.00,Wunderground v.1.13,2013-07-01 07:10:00,
2013-07-01 03:15:00,65.6,62.9,29.82,NNE,29,0.0,0.0,91,0.00,,,0.00,Wunderground v.1.13,2013-07-01 07:15:00,
2013-07-01 03:25:00,65.5,62.8,29.82,NNE,18,0.0,3.0,91,0.00,,,0.00,Wunderground v.1.13,2013-07-01 07:25:00,
2013-07-01 03:35:00,65.4,62.7,29.82,NW,313,1.0,1.0,91,0.00,,,0.00,Wunderground v.1.13,2013-07-01 07:35:00,
2013-07-01 03:40:00,65.4,62.7,29.82,NNW,335,1.0,2.0,91,0.00,,,0.00,Wunderground v.1.13,2013-07-01 07:40:00,
2013-07-01 03:45:00,65.4,63.0,29.82,NNW,336,0.0,0.0,92,0.00,,,0.00,Wunderground v.1.13,2013-07-01 07:45:00,
2013-07-01 03:50:00,65.4,63.0,29.82,NW,325,0.0,0.0,92,0.00,,,0.00,Wunderground v.1.13,2013-07-01 07:50:00,
2013-07-01 03:55:00,65.4,63.0,29.82,NNW,333,0.0,1.0,92,0.00,,,0.00,Wunderground v.1.13,2013-07-01 07:55:00,
2013-07-01 04:05:00,65.4,63.0,29.82,NNW,336,0.0,0.0,92,0.00,,,0.00,Wunderground v.1.13,2013-07-01 08:05:00,
2013-07-01 04:15:00,65.3,62.9,29.82,NNW,333,1.0,1.0,92,0.00,,,0.00,Wunderground v.1.13,2013-07-01 08:15:00,
2013-07-01 04:20:00,65.3,62.9,29.82,NNW,334,0.0,0.0,92,0.00,,,0.00,Wunderground v.1.13,2013-07-01 08:20:00,
2013-07-01 04:25:00,65.3,62.9,29.83,NNW,334,0.0,0.0,92,0.00,,,0.00,Wunderground v.1.13,2013-07-01 08:25:00,
2013-07-01 04:30:00,65.3,62.9,29.83,North,5,0.0,1.0,92,0.00,,,0.00,Wunderground v.1.13,2013-07-01 08:30:00,
2013-07-01 04:40:00,65.3,62.9,29.83,North,5,0.0,0.0,92,0.00,,,0.00,Wunderground v.1.13,2013-07-01 08:40:00,
2013-07-01 04:50:00,65.4,63.0,29.84,NNE,26,0.0,0.0,92,0.00,,,0.00,Wunderground v.1.13,2013-07-01 08:50:00,
2013-07-01 05:00:00,65.4,62.7,29.84,NNE,26,0.0,0.0,91,0.00,,,0.00,Wunderground v.1.13,2013-07-01 09:00:00,
2013-07-01 05:05:00,65.4,62.7,29.84,NNE,26,0.0,2.0,91,0.00,,,0.00,Wunderground v.1.13,2013-07-01 09:05:00,
2013-07-01 05:15:00,65.4,62.7,29.84,NNE,26,0.0,0.0,91,0.00,,,0.00,Wunderground v.1.13,2013-07-01 09:15:00,
2013-07-01 05:25:00,65.4,63.0,29.84,NNE,26,0.0,0.0,92,0.00,,,0.00,Wunderground v.1.13,2013-07-01 09:25:00,
2013-07-01 05:35:00,65.3,62.9,29.84,NNE,26,0.0,0.0,92,0.00,,,0.00,Wunderground v.1.13,2013-07-01 09:35:00,
2013-07-01 05:40:00,65.3,62.9,29.84,NNE,26,0.0,0.0,92,0.00,,,0.00,Wunderground v.1.13,2013-07-01 09:40:00,
2013-07-01 05:45:00,65.2,62.8,29.84,NNE,26,0.0,0.0,92,0.00,,,0.00,Wunderground v.1.13,2013-07-01 09:45:00,
2013-07-01 05:55:00,65.2,63.1,29.85,NNE,26,0.0,0.0,93,0.00,,,0.00,Wunderground v.1.13,2013-07-01 09:55:00,
2013-07-01 06:05:00,65.1,63.0,29.86,NNE,26,0.0,0.0,93,0.00,,,0.00,Wunderground v.1.13,2013-07-01 10:05:00,
2013-07-01 06:10:00,65.1,63.0,29.86,NNE,26,0.0,0.0,93,0.00,,,0.01,Wunderground v.1.13,2013-07-01 10:10:00,
2013-07-01 06:15:00,65.1,63.0,29.85,NNE,26,0.0,0.0,93,0.00,,,0.01,Wunderground v.1.13,2013-07-01 10:15:00,
2013-07-01 06:20:00,65.0,62.9,29.86,NNE,26,0.0,0.0,93,0.00,,,0.01,Wunderground v.1.13,2013-07-01 10:20:00,
2013-07-01 06:30:00,64.9,62.8,29.85,NNE,24,0.0,0.0,93,0.00,,,0.01,Wunderground v.1.13,2013-07-01 10:30:00,
2013-07-01 06:40:00,64.8,63.0,29.85,North,355,0.0,0.0,94,0.00,,,0.01,Wunderground v.1.13,2013-07-01 10:40:00,
2013-07-01 06:45:00,64.8,63.0,29.85,North,5,0.0,0.0,94,0.00,,,0.01,Wunderground v.1.13,2013-07-01 10:45:00,
2013-07-01 06:55:00,64.8,63.0,29.86,North,355,0.0,0.0,94,0.00,,,0.01,Wunderground v.1.13,2013-07-01 10:55:00,
2013-07-01 07:00:00,64.8,63.0,29.85,North,355,0.0,0.0,94,0.00,,,0.01,Wunderground v.1.13,2013-07-01 11:00:00,
2013-07-01 07:05:00,64.8,63.3,29.85,North,355,0.0,0.0,95,0.00,,,0.01,Wunderground v.1.13,2013-07-01 11:05:00,
2013-07-01 07:15:00,64.8,63.3,29.86,North,355,0.0,0.0,95,0.00,,,0.01,Wunderground v.1.13,2013-07-01 11:15:00,
2013-07-01 07:25:00,64.8,63.3,29.86,North,355,0.0,0.0,95,0.00,,,0.01,Wunderground v.1.13,2013-07-01 11:25:00,
2013-07-01 07:30:00,64.8,63.3,29.85,North,5,0.0,0.0,95,0.00,,,0.01,Wunderground v.1.13,2013-07-01 11:30:00,
2013-07-01 07:40:00,64.7,63.2,29.86,NNE,28,1.0,1.0,95,0.00,,,0.01,Wunderground v.1.13,2013-07-01 11:40:00,
2013-07-01 07:45:00,64.7,62.9,29.85,NE,43,1.0,1.0,94,0.00,,,0.01,Wunderground v.1.13,2013-07-01 11:45:00,
2013-07-01 07:50:00,64.7,63.2,29.85,NNE,29,0.0,0.0,95,0.00,,,0.01,Wunderground v.1.13,2013-07-01 11:50:00,
2013-07-01 08:00:00,64.9,63.4,29.86,North,360,1.0,1.0,95,0.00,,,0.01,Wunderground v.1.13,2013-07-01 12:00:00,
2013-07-01 08:10:00,65.0,63.5,29.86,NNE,30,1.0,1.0,95,0.00,,,0.01,Wunderground v.1.13,2013-07-01 12:10:00,
2013-07-01 08:20:00,65.2,63.4,29.87,WNW,302,0.0,0.0,94,0.00,,,0.01,Wunderground v.1.13,2013-07-01 12:20:00,
2013-07-01 08:30:00,65.5,63.7,29.88,WNW,302,0.0,0.0,94,0.00,,,0.01,Wunderground v.1.13,2013-07-01 12:30:00,
2013-07-01 08:40:00,65.9,64.1,29.88,NW,313,0.0,0.0,94,0.00,,,0.01,Wunderground v.1.13,2013-07-01 12:40:00,
2013-07-01 08:50:00,66.5,65.0,29.87,NNE,30,0.0,5.0,95,0.00,,,0.01,Wunderground v.1.13,2013-07-01 12:50:00,
2013-07-01 08:55:00,66.8,65.0,29.87,NE,38,1.0,1.0,94,0.00,,,0.01,Wunderground v.1.13,2013-07-01 12:55:00,
2013-07-01 09:00:00,67.3,65.5,29.87,North,10,1.0,3.0,94,0.00,,,0.01,Wunderground v.1.13,2013-07-01 13:00:00,
2013-07-01 09:10:00,67.2,64.5,29.88,NE,41,2.0,2.0,91,0.00,,,0.01,Wunderground v.1.13,2013-07-01 13:10:00,
2013-07-01 09:20:00,67.3,64.6,29.88,NE,54,2.0,4.0,91,0.00,,,0.01,Wunderground v.1.13,2013-07-01 13:20:00,
2013-07-01 09:30:00,68.0,65.6,29.88,ENE,62,1.0,1.0,92,0.00,,,0.01,Wunderground v.1.13,2013-07-01 13:30:00,
2013-07-01 09:40:00,68.8,65.4,29.88,NNE,22,1.0,1.0,89,0.00,,,0.01,Wunderground v.1.13,2013-07-01 13:40:00,
2013-07-01 09:45:00,68.8,65.1,29.88,NE,47,1.0,1.0,88,0.00,,,0.01,Wunderground v.1.13,2013-07-01 13:45:00,
2013-07-01 09:55:00,69.0,65.6,29.88,NE,46,0.0,0.0,89,0.00,,,0.01,Wunderground v.1.13,2013-07-01 13:55:00,
2013-07-01 10:05:00,69.7,65.7,29.88,NE,40,0.0,0.0,87,0.00,,,0.01,Wunderground v.1.13,2013-07-01 14:05:00,
2013-07-01 10:10:00,70.0,65.6,29.89,NE,40,0.0,0.0,86,0.00,,,0.01,Wunderground v.1.13,2013-07-01 14:10:00,
2013-07-01 10:15:00,70.4,66.3,29.88,NE,41,0.0,0.0,87,0.00,,,0.01,Wunderground v.1.13,2013-07-01 14:15:00,
2013-07-01 10:20:00,71.0,66.6,29.88,NE,40,0.0,0.0,86,0.00,,,0.01,Wunderground v.1.13,2013-07-01 14:20:00,
2013-07-01 10:30:00,72.1,66.6,29.88,NNW,342,0.0,0.0,83,0.00,,,0.01,Wunderground v.1.13,2013-07-01 14:30:00,
2013-07-01 10:40:00,72.8,66.3,29.88,NE,49,1.0,3.0,80,0.00,,,0.01,Wunderground v.1.13,2013-07-01 14:40:00,
2013-07-01 10:50:00,72.6,66.1,29.88,SSE,164,1.0,1.0,80,0.00,,,0.01,Wunderground v.1.13,2013-07-01 14:50:00,
2013-07-01 11:00:00,72.9,66.0,29.88,SSW,197,3.0,3.0,79,0.00,,,0.01,Wunderground v.1.13,2013-07-01 15:00:00,
2013-07-01 11:05:00,73.1,65.8,29.88,SE,146,4.0,5.0,78,0.00,,,0.01,Wunderground v.1.13,2013-07-01 15:05:00,
2013-07-01 11:15:00,73.7,66.0,29.89,SE,146,1.0,1.0,77,0.00,,,0.01,Wunderground v.1.13,2013-07-01 15:15:00,
2013-07-01 11:20:00,73.8,65.4,29.89,SE,146,1.0,1.0,75,0.00,,,0.01,Wunderground v.1.13,2013-07-01 15:20:00,
2013-07-01 11:25:00,73.6,65.9,29.89,SE,146,0.0,2.0,77,0.00,,,0.01,Wunderground v.1.13,2013-07-01 15:25:00,
2013-07-01 11:30:00,73.6,65.9,29.89,SE,146,0.0,0.0,77,0.00,,,0.01,Wunderground v.1.13,2013-07-01 15:30:00,
2013-07-01 11:40:00,73.6,65.9,29.89,ESE,110,1.0,2.0,77,0.00,,,0.01,Wunderground v.1.13,2013-07-01 15:40:00,
2013-07-01 11:50:00,73.4,66.1,29.89,ENE,57,1.0,1.0,78,0.00,,,0.01,Wunderground v.1.13,2013-07-01 15:50:00,
2013-07-01 12:00:00,74.1,66.0,29.89,ENE,57,0.0,0.0,76,0.00,,,0.01,Wunderground v.1.13,2013-07-01 16:00:00,
2013-07-01 12:05:00,74.5,66.4,29.89,ENE,57,0.0,0.0,76,0.00,,,0.01,Wunderground v.1.13,2013-07-01 16:05:00,
2013-07-01 12:15:00,75.1,66.6,29.88,ENE,67,1.0,3.0,75,0.00,,,0.01,Wunderground v.1.13,2013-07-01 16:15:00,
2013-07-01 12:25:00,75.1,66.2,29.88,West,259,2.0,2.0,74,0.00,,,0.01,Wunderground v.1.13,2013-07-01 16:25:00,
2013-07-01 12:30:00,75.5,66.2,29.88,SSW,193,1.0,1.0,73,0.00,,,0.01,Wunderground v.1.13,2013-07-01 16:30:00,
2013-07-01 12:35:00,75.8,66.1,29.88,South,178,1.0,1.0,72,0.00,,,0.01,Wunderground v.1.13,2013-07-01 16:35:00,
2013-07-01 12:45:00,76.4,65.5,29.88,SSE,154,0.0,1.0,69,0.00,,,0.01,Wunderground v.1.13,2013-07-01 16:45:00,
2013-07-01 12:55:00,76.4,65.5,29.88,SSE,154,0.0,0.0,69,0.00,,,0.01,Wunderground v.1.13,2013-07-01 16:55:00,
2013-07-01 13:00:00,76.6,65.7,29.88,SSE,154,1.0,1.0,69,0.00,,,0.01,Wunderground v.1.13,2013-07-01 17:00:00,
2013-07-01 13:05:00,77.2,67.1,29.88,East,93,0.0,0.0,71,0.00,,,0.01,Wunderground v.1.13,2013-07-01 17:05:00,
2013-07-01 13:10:00,77.5,65.7,29.88,WNW,296,1.0,4.0,67,0.00,,,0.01,Wunderground v.1.13,2013-07-01 17:10:00,
2013-07-01 13:20:00,77.6,66.2,29.88,WNW,296,1.0,1.0,68,0.00,,,0.01,Wunderground v.1.13,2013-07-01 17:20:00,
2013-07-01 13:25:00,77.9,65.6,29.88,WNW,296,1.0,1.0,66,0.00,,,0.01,Wunderground v.1.13,2013-07-01 17:25:00,
2013-07-01 13:35:00,78.3,65.1,29.88,NNW,329,0.0,1.0,64,0.00,,,0.01,Wunderground v.1.13,2013-07-01 17:35:00,
2013-07-01 13:40:00,78.6,64.9,29.88,NNW,329,1.0,1.0,63,0.00,,,0.01,Wunderground v.1.13,2013-07-01 17:40:00,
2013-07-01 13:45:00,78.9,65.2,29.88,NNW,329,1.0,1.0,63,0.00,,,0.01,Wunderground v.1.13,2013-07-01 17:45:00,
2013-07-01 13:55:00,79.3,64.2,29.87,North,355,1.0,1.0,60,0.00,,,0.01,Wunderground v.1.13,2013-07-01 17:55:00,
2013-07-01 14:00:00,79.4,65.2,29.87,North,355,1.0,1.0,62,0.00,,,0.01,Wunderground v.1.13,2013-07-01 18:00:00,
2013-07-01 14:05:00,79.7,66.9,29.88,NNE,17,0.0,0.0,65,0.00,,,0.01,Wunderground v.1.13,2013-07-01 18:05:00,
2013-07-01 14:10:00,80.0,66.3,29.87,NNE,17,0.0,0.0,63,0.00,,,0.01,Wunderground v.1.13,2013-07-01 18:10:00,
2013-07-01 14:20:00,79.4,67.9,29.87,NNE,15,1.0,1.0,68,0.00,,,0.01,Wunderground v.1.13,2013-07-01 18:20:00,
2013-07-01 14:30:00,79.8,65.6,29.87,North,360,1.0,1.0,62,0.00,,,0.01,Wunderground v.1.13,2013-07-01 18:30:00,
2013-07-01 14:40:00,80.0,65.3,29.86,NW,316,1.0,1.0,61,0.00,,,0.01,Wunderground v.1.13,2013-07-01 18:40:00,
2013-07-01 14:50:00,80.5,67.2,29.86,North,9,1.0,2.0,64,0.00,,,0.01,Wunderground v.1.13,2013-07-01 18:50:00,
2013-07-01 15:00:00,81.0,64.8,29.87,NNW,327,1.0,1.0,58,0.00,,,0.01,Wunderground v.1.13,2013-07-01 19:00:00,
2013-07-01 15:10:00,80.7,66.5,29.87,NNW,327,0.0,0.0,62,0.00,,,0.01,Wunderground v.1.13,2013-07-01 19:10:00,
2013-07-01 15:15:00,80.9,65.2,29.87,NNW,327,0.0,0.0,59,0.00,,,0.01,Wunderground v.1.13,2013-07-01 19:15:00,
2013-07-01 15:20:00,81.2,63.5,29.86,SE,130,1.0,1.0,55,0.00,,,0.01,Wunderground v.1.13,2013-07-01 19:20:00,
2013-07-01 15:30:00,80.8,65.6,29.86,NE,34,1.0,1.0,60,0.00,,,0.01,Wunderground v.1.13,2013-07-01 19:30:00,
2013-07-01 15:40:00,81.0,67.7,29.86,NE,35,1.0,1.0,64,0.00,,,0.01,Wunderground v.1.13,2013-07-01 19:40:00,
2013-07-01 15:50:00,81.3,68.0,29.86,North,9,1.0,1.0,64,0.00,,,0.01,Wunderground v.1.13,2013-07-01 19:50:00,
2013-07-01 15:55:00,81.3,69.3,29.86,NNE,26,1.0,1.0,67,0.00,,,0.01,Wunderground v.1.13,2013-07-01 19:55:00,
2013-07-01 16:05:00,81.7,67.9,29.86,North,355,1.0,1.0,63,0.00,,,0.01,Wunderground v.1.13,2013-07-01 20:05:00,
2013-07-01 16:10:00,81.3,67.5,29.86,NE,53,1.0,1.0,63,0.00,,,0.01,Wunderground v.1.13,2013-07-01 20:10:00,
2013-07-01 16:15:00,80.8,67.5,29.86,NNE,24,1.0,1.0,64,0.00,,,0.01,Wunderground v.1.13,2013-07-01 20:15:00,
2013-07-01 16:20:00,80.3,67.0,29.86,NNE,26,0.0,0.0,64,0.00,,,0.01,Wunderground v.1.13,2013-07-01 20:20:00,
2013-07-01 16:25:00,80.2,67.4,29.86,NNE,20,0.0,1.0,65,0.00,,,0.01,Wunderground v.1.13,2013-07-01 20:25:00,
2013-07-01 16:30:00,79.9,67.1,29.87,WNW,298,0.0,0.0,65,0.00,,,0.01,Wunderground v.1.13,2013-07-01 20:30:00,
2013-07-01 16:40:00,76.5,66.4,29.87,WNW,300,4.0,6.0,71,0.00,,,0.01,Wunderground v.1.13,2013-07-01 20:40:00,
2013-07-01 16:50:00,75.3,66.4,29.87,NW,325,3.0,3.0,74,0.00,,,0.01,Wunderground v.1.13,2013-07-01 20:50:00,
2013-07-01 16:55:00,75.0,66.5,29.87,NNW,348,2.0,2.0,75,0.00,,,0.01,Wunderground v.1.13,2013-07-01 20:55:00,
2013-07-01 17:00:00,74.8,66.7,29.87,NNE,15,2.0,2.0,76,0.00,,,0.01,Wunderground v.1.13,2013-07-01 21:00:00,
2013-07-01 17:05:00,74.7,66.6,29.87,NW,313,2.0,2.0,76,0.00,,,0.01,Wunderground v.1.13,2013-07-01 21:05:00,
2013-07-01 17:10:00,74.6,66.9,29.87,NE,56,1.0,1.0,77,0.00,,,0.01,Wunderground v.1.13,2013-07-01 21:10:00,
2013-07-01 17:20:00,74.6,67.7,29.88,WNW,299,1.0,3.0,79,0.00,,,0.01,Wunderground v.1.13,2013-07-01 21:20:00,
2013-07-01 17:30:00,73.6,68.5,29.87,North,360,2.0,2.0,84,0.51,,,0.12,Wunderground v.1.13,2013-07-01 21:30:00,
2013-07-01 17:40:00,72.3,68.9,29.87,North,5,1.0,1.0,89,0.08,,,0.14,Wunderground v.1.13,2013-07-01 21:40:00,
2013-07-01 17:50:00,71.9,68.8,29.87,North,5,0.0,0.0,90,0.00,,,0.14,Wunderground v.1.13,2013-07-01 21:50:00,
2013-07-01 18:00:00,71.9,68.5,29.86,NW,306,1.0,1.0,89,0.00,,,0.14,Wunderground v.1.13,2013-07-01 22:00:00,
2013-07-01 18:05:00,71.9,68.5,29.86,NNW,332,1.0,1.0,89,0.00,,,0.14,Wunderground v.1.13,2013-07-01 22:05:00,
2013-07-01 18:15:00,71.9,67.8,29.86,NE,43,0.0,0.0,87,0.00,,,0.14,Wunderground v.1.13,2013-07-01 22:15:00,
2013-07-01 18:25:00,72.1,68.3,29.87,NNE,19,0.0,0.0,88,0.00,,,0.14,Wunderground v.1.13,2013-07-01 22:25:00,
2013-07-01 18:35:00,72.4,68.6,29.87,NE,42,0.0,0.0,88,0.00,,,0.14,Wunderground v.1.13,2013-07-01 22:35:00,
2013-07-01 18:45:00,72.6,68.5,29.87,NW,315,0.0,0.0,87,0.00,,,0.14,Wunderground v.1.13,2013-07-01 22:45:00,
2013-07-01 18:50:00,72.7,68.9,29.87,NW,315,0.0,0.0,88,0.00,,,0.14,Wunderground v.1.13,2013-07-01 22:50:00,
2013-07-01 19:00:00,72.8,68.7,29.88,WNW,295,0.0,0.0,87,0.00,,,0.14,Wunderground v.1.13,2013-07-01 23:00:00,
2013-07-01 19:10:00,72.8,69.4,29.88,WNW,295,0.0,0.0,89,0.00,,,0.14,Wunderground v.1.13,2013-07-01 23:10:00,
2013-07-01 19:20:00,72.8,69.4,29.89,NE,43,0.0,0.0,89,0.00,,,0.14,Wunderground v.1.13,2013-07-01 23:20:00,
2013-07-01 19:30:00,72.6,69.2,29.89,North,351,0.0,0.0,89,0.00,,,0.14,Wunderground v.1.13,2013-07-01 23:30:00,
2013-07-01 19:35:00,72.6,69.2,29.90,North,355,0.0,1.0,89,0.00,,,0.14,Wunderground v.1.13,2013-07-01 23:35:00,
2013-07-01 19:45:00,72.6,69.2,29.90,NNE,17,0.0,0.0,89,0.00,,,0.14,Wunderground v.1.13,2013-07-01 23:45:00,
2013-07-01 19:55:00,72.5,69.1,29.90,North,355,0.0,1.0,89,0.00,,,0.14,Wunderground v.1.13,2013-07-01 23:55:00,
2013-07-01 20:05:00,72.3,68.5,29.90,NNW,340,0.0,0.0,88,0.00,,,0.14,Wunderground v.1.13,2013-07-02 00:05:00,
2013-07-01 20:10:00,72.2,68.4,29.90,North,360,0.0,3.0,88,0.00,,,0.14,Wunderground v.1.13,2013-07-02 00:10:00,
2013-07-01 20:20:00,72.0,68.2,29.90,NW,317,0.0,0.0,88,0.00,,,0.14,Wunderground v.1.13,2013-07-02 00:20:00,
2013-07-01 20:30:00,71.9,68.2,29.90,NNW,346,0.0,0.0,88,0.00,,,0.14,Wunderground v.1.13,2013-07-02 00:30:00,
2013-07-01 20:40:00,71.6,67.5,29.90,North,5,1.0,1.0,87,0.00,,,0.14,Wunderground v.1.13,2013-07-02 00:40:00,
2013-07-01 20:45:00,71.4,67.3,29.91,North,11,1.0,1.0,87,0.00,,,0.14,Wunderground v.1.13,2013-07-02 00:45:00,
2013-07-01 20:50:00,71.3,67.2,29.91,NNW,338,1.0,1.0,87,0.00,,,0.14,Wunderground v.1.13,2013-07-02 00:50:00,
2013-07-01 21:00:00,71.1,67.0,29.91,North,360,0.0,3.0,87,0.00,,,0.14,Wunderground v.1.13,2013-07-02 01:00:00,
2013-07-01 21:10:00,70.8,65.7,29.91,NE,45,2.0,2.0,84,0.00,,,0.14,Wunderground v.1.13,2013-07-02 01:10:00,
2013-07-01 21:20:00,70.6,65.5,29.92,NNW,328,1.0,1.0,84,0.00,,,0.14,Wunderground v.1.13,2013-07-02 01:20:00,
2013-07-01 21:30:00,70.5,65.4,29.92,North,360,1.0,1.0,84,0.00,,,0.14,Wunderground v.1.13,2013-07-02 01:30:00,
2013-07-01 21:40:00,70.3,65.2,29.93,NE,36,0.0,0.0,84,0.00,,,0.14,Wunderground v.1.13,2013-07-02 01:40:00,
2013-07-01 21:50:00,70.3,65.6,29.93,North,11,0.0,0.0,85,0.00,,,0.14,Wunderground v.1.13,2013-07-02 01:50:00,
2013-07-01 21:55:00,70.4,65.7,29.93,NNE,25,0.0,2.0,85,0.00,,,0.14,Wunderground v.1.13,2013-07-02 01:55:00,
2013-07-01 22:05:00,70.5,66.1,29.93,NE,34,1.0,1.0,86,0.00,,,0.15,Wunderground v.1.13,2013-07-02 02:05:00,
2013-07-01 22:15:00,70.0,66.0,29.91,NNE,27,1.0,4.0,87,0.00,,,0.15,Wunderground v.1.13,2013-07-02 02:15:00,
2013-07-01 22:25:00,69.7,66.0,29.92,North,10,1.0,1.0,88,0.00,,,0.15,Wunderground v.1.13,2013-07-02 02:25:00,
2013-07-01 22:30:00,69.5,65.8,29.92,NNE,14,0.0,0.0,88,0.00,,,0.15,Wunderground v.1.13,2013-07-02 02:30:00,
2013-07-01 22:40:00,69.4,65.7,29.92,NE,52,1.0,2.0,88,0.00,,,0.16,Wunderground v.1.13,2013-07-02 02:40:00,
2013-07-01 22:50:00,69.0,65.6,29.91,NE,40,1.0,6.0,89,0.00,,,0.16,Wunderground v.1.13,2013-07-02 02:50:00,
2013-07-01 22:55:00,68.8,65.7,29.91,NNE,33,1.0,1.0,90,0.00,,,0.16,Wunderground v.1.13,2013-07-02 02:55:00,
2013-07-01 23:05:00,68.6,65.9,29.90,NE,39,1.0,1.0,91,0.00,,,0.16,Wunderground v.1.13,2013-07-02 03:05:00,
2013-07-01 23:15:00,68.3,65.6,29.90,NNE,12,1.0,1.0,91,0.00,,,0.16,Wunderground v.1.13,2013-07-02 03:15:00,
2013-07-01 23:25:00,68.1,65.7,29.90,NNE,27,0.0,0.0,92,0.00,,,0.16,Wunderground v.1.13,2013-07-02 03:25:00,
2013-07-01 23:30:00,68.1,65.7,29.90,NW,320,1.0,1.0,92,0.00,,,0.16,Wunderground v.1.13,2013-07-02 03:30:00,
2013-07-01 23:40:00,67.9,65.5,29.90,North,355,1.0,1.0,92,0.00,,,0.16,Wunderground v.1.13,2013-07-02 03:40:00,
2013-07-01 23:45:00,67.8,65.4,29.91,NE,38,0.0,0.0,92,0.00,,,0.16,Wunderground v.1.13,2013-07-02 03:45:00,
2013-07-01 23:50:00,67.7,65.3,29.91,NE,42,1.0,1.0,92,0.00,,,0.16,Wunderground v.1.13,2013-07-02 03:50:00,